Flag for Turkey Weather past 2 weeks in Bursa, Turkey

Now
55 °F

Scattered clouds.


Feels Like: 55 °F
Forecast: 38 / 54 °F
Wind: 2 mph from Northeast

Location: Bursa

Current Time: Apr 1, 2015 at 11:23:15 AM

Latest Report: Apr 1, 2015 at 10:00 AM


Visibility: 6 mi

Pressure: 29.85 "Hg

Humidity: 79%

Dew point: 49 °F

Location of BursaLocation

Historic Weather in Bursa — Graph

°F

Bursa temperature yesterday

Maximum temperature yesterday: 58 °F (at 4:00 PM)
Minimum temperature yesterday: 53 °F (at 3:00 AM)
Average temperature yesterday: 56 °F

Past Weeks' High & Low Weather Summary

 TemperatureHumidityPressure
High73 °F (Mar 26, 3:00 PM)100% (Mar 22, 2:00 AM)30.40 "Hg (Mar 22, 2:00 AM)
Low30 °F (Mar 18, 7:00 AM)36% (Mar 19, 11:00 AM)29.64 "Hg (Mar 28, 3:00 PM)
Average50 °F77%30.06 "Hg
* Reported Mar 17 9:00 AM — Apr 1 10:00 AM, Bursa, Weather by CustomWeather, © 2015

Note: Actual official high and low records may vary slightly from our data, if they occured in-between our weather recording intervals... More about our weather records

Advertising

Bursa weather history for previous 24 hours

 ConditionsComfort  
Time TempWeatherWind HumidityBarometerVisibility
10:00 AM
Wed, Apr 1
55 °FScattered clouds.2 mph79%29.85 "Hg6 mi
9:00 AM51 °FScattered clouds.1 mph90%29.84 "Hg6 mi
6:00 AM44 °FClear.2 mph94%29.86 "Hg6 mi
3:00 AM44 °FClear.2 mph96%29.87 "Hg7 mi
12:00 AM47 °FClear.1 mph94%29.87 "Hg7 mi
9:00 PM
Tue, Mar 31
53 °FPassing clouds.1 mph87%29.87 "Hg7 mi
8:00 PM55 °FSprinkles. Overcast.2 mph84%29.86 "Hg6 mi
7:00 PM57 °FPartly sunny.3 mph77%29.82 "Hg9 mi
6:00 PM58 °FPartly sunny.5 mph76%29.82 "Hg9 mi
5:00 PM58 °FOvercast.3 mph75%29.82 "Hg9 mi
4:00 PM58 °FPartly sunny.3 mph78%29.83 "Hg7 mi
3:00 PM57 °FOvercast.12 mph82%29.85 "Hg7 mi
2:00 PM56 °FOvercast.9 mph88%29.87 "Hg7 mi
1:00 PM57 °FSprinkles. Overcast.7 mph84%29.87 "Hg5 mi
12:00 PM57 °FSprinkles. Overcast.7 mph84%29.87 "Hg4 mi
11:00 AM57 °FSprinkles. Overcast.5 mph83%29.85 "Hg5 mi
Weather by CustomWeather, © 2015

See weather overviewHow to use our weather pages